Regional Weather Roundup
Issued by NWS Cleveland, OH

Home | Current Version | Previous Version | Text Only | Print | Product List | Glossary Off
Versions: 1 2 3 4 5 6 7 8 9 10 11 12 13 14 15 16 17 18 19 20 21 22 23 24 25 26 27 28 29 30 31 32 33 34 35 36 37 38 39 40 41 42 43 44 45 46 47 48 49 50

000
ASUS41 KCLE 280702
RWRCLE
OHIO REGIONAL WEATHER ROUNDUP
NATIONAL WEATHER SERVICE CLEVELAND, OH
300 AM EDT MON JUL 28 2014

NOTE: "FAIR" INDICATES FEW OR NO CLOUDS BELOW 12,000 FEET WITH NO
SIGNIFICANT WEATHER AND/OR OBSTRUCTIONS TO VISIBILITY.

OHZ001>008-015>018-024>027-034-035-043-044-280800-
   NORTHWEST OHIO

CITY           SKY/WX    TMP DP  RH WIND       PRES   REMARKS
DEFIANCE       CLOUDY    63  58  83 NW9       29.77R
FINDLAY        CLEAR     62  59  90 W8        29.73S
TOLEDO EXPRESS CLEAR     60  58  92 NW6       29.74S
TOLEDO EXEC    CLEAR     63  57  81 NW10      29.74R
LIMA           MOCLDY    63  59  87 W13       29.77R
$$

OHZ009>014-019>023-028>033-038-089-280800-
   NORTHEAST OHIO

CITY           SKY/WX    TMP DP  RH WIND       PRES   REMARKS
CLE-HOPKINS    CLOUDY    63  60  90 NW14      29.70R
CLE-LAKEFRONT  MOCLDY    66  61  84 NW17      29.66R
CUY CO. ARPT   NOT AVBL
LORAIN-ELYRIA  LGT RAIN  66  61  84 NW10      29.70R
ASHTABULA      CLOUDY    60  58  92 W5        29.65R
AKRON-CANTON   CLOUDY    64  61  90 W12       29.68R FOG
WOOSTER        CLOUDY    63  60  90 NW9       29.70R
MANSFIELD      CLOUDY    61  61 100 W8        29.72S
YOUNGSTOWN     FOG       62  61  96 W7        29.64R VSB 1/2
$$

OHZ042-051>053-060>062-070>072-077>081-280800-
  SOUTHWEST OHIO

CITY           SKY/WX    TMP DP  RH WIND       PRES   REMARKS
CINC-COVINGTON CLEAR     65  59  81 W8        29.83S
CINC-LUNKEN    PTCLDY    68  58  70 W5        29.82R
HAMILTON       CLEAR     64  59  83 W3        29.82R
DAYTON         PTCLDY    65  57  75 W9        29.80R
WRIGHT-PAT AFB CLEAR     66  58  74 W12       29.78S
DAYTON GENERAL CLEAR     66  57  72 VRB5      29.79S
WILMINGTON     CLEAR     64  57  78 W8        29.79S
$$

OHZ036-037-039>041-045>050-054>059-063>069-073>076-082>088-280800-
  CENTRAL AND SOUTHEAST OHIO

CITY           SKY/WX    TMP DP  RH WIND       PRES   REMARKS
COLUMBUS       CLEAR     67  62  84 W9        29.73S
OSU AIRPORT    CLEAR     64  61  90 W9        29.74S
BOLTON FIELD   CLEAR     64  60  87 W7        29.76R
RICKENBACK AFB CLEAR     66  59  79 W8        29.74S
NEWARK         CLEAR     64  62  93 W7        29.72R
MARION         CLEAR     63  61  93 W9        29.73S
LANCASTER      CLEAR     65  62  90 W8        29.75R
ZANESVILLE     CLEAR     65  62  90 W7        29.71R
NEW PHILLY     MOCLDY    63  62  97 CALM      29.69S
$$


USA.gov is the U.S. government's official web portal to all federal, state and local government web resources and services.